Regional Weather Roundup
Issued by NWS

Home | Current Version | Previous Version | Text Only | Print | Product List | Glossary On
Versions: 1 2 3 4 5 6 7 8 9 10 11 12 13 14 15 16 17 18 19 20 21 22 23 24 25 26 27 28 29 30 31 32 33 34 35 36 37 38 39 40 41 42 43 44 45 46 47 48 49 50
502
ASUS44 KJAN 190803
RWRMS

MISSISSIPPI HOURLY WEATHER ROUNDUP
NATIONAL WEATHER SERVICE JACKSON MS
200 AM CST FRI DEC 19 2014

NOTE: "FAIR: INDICATES FEW OR NO CLOUDS BELOW 12,000 FEET WITH NO
SIGNIFICANT WEATHER AND/OR OBSTRUCTIONS TO VISIBILITY.

MSZ001>002-007>008-010>013-018>021-025>028-034>036-190900-
NORTHWEST MISSISSIPPI

CITY           SKY/WX    TMP DP  RH WIND       PRES   REMARKS
CLARKSDALE     CLOUDY    45  41  87 CALM      30.20F
CLEVELAND      CLOUDY    45  43  93 NE7       30.19F
GREENWOOD      CLOUDY    47  40  76 CALM      30.20F
GREENVILLE     CLOUDY    46  42  86 NE7       30.18F
GRENADA        CLOUDY    45  37  76 CALM      30.20F
OLIVE BRANCH   CLOUDY    39  39 100 NE5       30.21F
OXFORD         CLOUDY    41  37  87 E5        30.21F
TUNICA         CLOUDY    43  39  87 N5        30.21F
$$

MSZ003>006-009-014>017-022>024-029>033-037>039-190900-
NORTHEAST MISSISSIPPI

CITY           SKY/WX    TMP DP  RH WIND       PRES   REMARKS
COLUMBUS AFB   MOCLDY    36  34  93 W1        30.22R
CORINTH        CLOUDY    43  37  81 CALM      30.21S
GOLDN TRIANGLE CLOUDY    37  34  87 N5        30.19F WCI  34
STARKVILLE     CLOUDY    45  37  76 NE5       30.20F
TUPELO         CLOUDY    44  38  79 NE7       30.21S
$$

MSZ040-058-190900-
CENTRAL MISSISSIPPI

CITY           SKY/WX    TMP DP  RH WIND       PRES   REMARKS
JACKSON INTL   CLOUDY    47  43  86 NE5       30.16F
JACKSON HAWKNS CLOUDY    48  43  82 E6        30.16F
MERIDIAN KEY   CLOUDY    44  37  76 N5        30.18F
MERIDIAN NAS   CLOUDY    41  37  86 N3        30.19F
RAYMOND        CLOUDY    48  45  87 CALM      30.15F
VICKSBURG      CLOUDY    49  44  83 E7        30.14F
$$

MSZ059>079-190900-
SOUTH MISSISSIPPI

CITY           SKY/WX    TMP DP  RH WIND       PRES   REMARKS
HATTIESBURG    CLOUDY    51  49  92 NE5       30.15F
MCCOMB         CLOUDY    51  48  89 E7        30.11F
NATCHEZ        CLOUDY    48  46  93 NE7       30.12F
PINE BELT      CLOUDY    48  45  87 NE6       30.15F
$$

MSZ080>082-190900-
COASTAL MISSISSIPPI

CITY           SKY/WX    TMP DP  RH WIND       PRES   REMARKS
BILOXI         CLOUDY    54  49  83 NE8       30.12F
PASCAGOULA     CLOUDY    54  47  77 N6        30.14F
GULFPORT       CLOUDY    54  49  83 NE7       30.12F
$$



USA.gov is the U.S. government's official web portal to all federal, state and local government web resources and services.